When you browse on this site, cookies collect data to enhance your experience and personalize the content and advertising you see.
Visit our Privacy Policy to learn more. By continuing to use the site, you agree to this use of cookies and data.
EN

Hourly Weather Dunay

Today, 5 August, Wednesday

Time Temperature Precipitation Wind Pressure Humidity
00:00 +18°C° 0 mm 3 mps 749 mmHg 78%
01:00 +18°C° 0 mm 3 mps 749 mmHg 79%
02:00 +17°C° 0 mm 3 mps 749 mmHg 80%
03:00 +17°C° 0 mm 3 mps 749 mmHg 80%
04:00 +17°C° 0 mm 3 mps 749 mmHg 81%
05:00 +16°C° 0 mm 3 mps 749 mmHg 81%
06:00 +18°C° 0 mm 3 mps 749 mmHg 76%
07:00 +20°C° 0 mm 3 mps 749 mmHg 72%
08:00 +22°C° 0 mm 3 mps 750 mmHg 67%
09:00 +24°C° 0 mm 3 mps 750 mmHg 62%
10:00 +26°C° 0 mm 3 mps 750 mmHg 56%
11:00 +28°C° 0 mm 3 mps 750 mmHg 51%
12:00 +29°C° 0 mm 3 mps 750 mmHg 48%
13:00 +29°C° 0 mm 2 mps 750 mmHg 45%
14:00 +30°C° 0 mm 2 mps 750 mmHg 42%
15:00 +30°C° 0 mm 2 mps 750 mmHg 45%
16:00 +30°C° 0 mm 1 mps 750 mmHg 47%
17:00 +30°C° 0 mm 1 mps 750 mmHg 49%
18:00 +28°C° 0 mm 1 mps 751 mmHg 55%
19:00 +25°C° 0 mm 1 mps 751 mmHg 60%
20:00 +23°C° 0 mm 1 mps 751 mmHg 66%
21:00 +22°C° 0 mm 1 mps 751 mmHg 70%
22:00 +22°C° 0 mm 1 mps 751 mmHg 73%
23:00 +21°C° 0 mm 1 mps 752 mmHg 77%

Tomorrow, 6 August, Thursday

Time Temperature Precipitation Wind Pressure Humidity
00:00 +20°C° 0 mm 1 mps 752 mmHg 79%
01:00 +20°C° 0 mm 1 mps 752 mmHg 80%
02:00 +20°C° 0 mm 1 mps 752 mmHg 82%
03:00 +19°C° 0 mm 1 mps 753 mmHg 83%
04:00 +19°C° 0 mm 1 mps 753 mmHg 84%
05:00 +19°C° 0 mm 1 mps 753 mmHg 84%
06:00 +21°C° 0 mm 1 mps 753 mmHg 79%
07:00 +22°C° 0 mm 1 mps 753 mmHg 75%
08:00 +24°C° 0 mm 1 mps 754 mmHg 70%
09:00 +25°C° 0 mm 1 mps 754 mmHg 66%
10:00 +27°C° 0 mm 1 mps 754 mmHg 63%
11:00 +28°C° 0 mm 2 mps 754 mmHg 60%
12:00 +28°C° 0.4 mm 2 mps 754 mmHg 60%
13:00 +28°C° 0.4 mm 2 mps 754 mmHg 61%
14:00 +29°C° 0.4 mm 3 mps 754 mmHg 61%
15:00 +28°C° 0.5 mm 3 mps 754 mmHg 66%
16:00 +27°C° 0.5 mm 3 mps 754 mmHg 70%
17:00 +27°C° 0.5 mm 4 mps 754 mmHg 74%
18:00 +25°C° 0.1 mm 4 mps 754 mmHg 78%
19:00 +24°C° 0.1 mm 3 mps 754 mmHg 82%
20:00 +21°C° 0.1 mm 3 mps 755 mmHg 87%
21:00 +20°C° 0 mm 3 mps 755 mmHg 88%
22:00 +19°C° 0 mm 3 mps 755 mmHg 88%
23:00 +18°C° 0 mm 3 mps 755 mmHg 89%

Day after tomorrow, 7 August, Friday

Time Temperature Precipitation Wind Pressure Humidity
00:00 +18°C° 0 mm 3 mps 755 mmHg 90%
01:00 +17°C° 0 mm 3 mps 755 mmHg 90%
02:00 +16°C° 0 mm 3 mps 756 mmHg 90%
03:00 +16°C° 0 mm 3 mps 756 mmHg 91%
04:00 +16°C° 0 mm 3 mps 756 mmHg 91%
05:00 +14°C° 0 mm 3 mps 756 mmHg 91%
06:00 +17°C° 0 mm 3 mps 756 mmHg 85%
07:00 +19°C° 0 mm 3 mps 756 mmHg 79%
08:00 +20°C° 0 mm 3 mps 756 mmHg 73%
09:00 +22°C° 0 mm 3 mps 757 mmHg 67%
10:00 +24°C° 0 mm 3 mps 757 mmHg 62%
11:00 +26°C° 0 mm 4 mps 757 mmHg 56%
12:00 +26°C° 0 mm 4 mps 756 mmHg 56%
13:00 +26°C° 0 mm 4 mps 756 mmHg 56%
14:00 +27°C° 0 mm 4 mps 756 mmHg 55%
15:00 +26°C° 0 mm 4 mps 756 mmHg 58%
16:00 +26°C° 0 mm 4 mps 755 mmHg 61%
17:00 +26°C° 0 mm 4 mps 755 mmHg 64%
18:00 +24°C° 0 mm 3 mps 755 mmHg 70%
19:00 +21°C° 0 mm 3 mps 755 mmHg 76%
20:00 +20°C° 0 mm 3 mps 755 mmHg 82%
21:00 +19°C° 0 mm 2 mps 755 mmHg 85%
22:00 +18°C° 0 mm 2 mps 756 mmHg 87%
23:00 +18°C° 0 mm 2 mps 756 mmHg 90%

8 August, Saturday

Time Temperature Precipitation Wind Pressure Humidity
00:00 +17°C° 0 mm 2 mps 756 mmHg 91%
01:00 +17°C° 0 mm 2 mps 755 mmHg 91%
02:00 +16°C° 0 mm 2 mps 755 mmHg 92%
03:00 +16°C° 0 mm 2 mps 755 mmHg 92%
04:00 +16°C° 0 mm 2 mps 755 mmHg 91%
05:00 +16°C° 0 mm 2 mps 755 mmHg 91%
06:00 +17°C° 0 mm 2 mps 755 mmHg 84%
07:00 +19°C° 0 mm 2 mps 755 mmHg 77%
08:00 +21°C° 0 mm 2 mps 755 mmHg 71%
09:00 +23°C° 0 mm 2 mps 755 mmHg 66%
10:00 +24°C° 0 mm 3 mps 755 mmHg 61%
11:00 +26°C° 0 mm 3 mps 755 mmHg 56%
12:00 +26°C° 0 mm 3 mps 754 mmHg 55%
13:00 +27°C° 0 mm 3 mps 754 mmHg 53%
14:00 +27°C° 0 mm 2 mps 753 mmHg 51%
15:00 +27°C° 0 mm 2 mps 753 mmHg 53%
16:00 +26°C° 0 mm 2 mps 753 mmHg 55%
17:00 +26°C° 0 mm 2 mps 752 mmHg 57%
18:00 +24°C° 0 mm 2 mps 752 mmHg 62%
19:00 +21°C° 0 mm 2 mps 752 mmHg 68%
20:00 +21°C° 0 mm 1 mps 752 mmHg 73%
21:00 +20°C° 0 mm 1 mps 752 mmHg 74%
22:00 +19°C° 0 mm 1 mps 752 mmHg 76%
23:00 +19°C° 0 mm 1 mps 752 mmHg 78%

9 August, Sunday

Time Temperature Precipitation Wind Pressure Humidity
00:00 +18°C° 0 mm 1 mps 752 mmHg 79%
01:00 +18°C° 0 mm 1 mps 752 mmHg 80%
02:00 +16°C° 0 mm 1 mps 752 mmHg 81%
03:00 +16°C° 0 mm 1 mps 751 mmHg 82%
04:00 +16°C° 0 mm 1 mps 751 mmHg 83%
05:00 +16°C° 0 mm 1 mps 751 mmHg 84%
06:00 +19°C° 0 mm 1 mps 751 mmHg 78%
07:00 +20°C° 0 mm 1 mps 751 mmHg 73%
08:00 +22°C° 0 mm 1 mps 751 mmHg 67%
09:00 +23°C° 0.1 mm 1 mps 751 mmHg 65%
10:00 +25°C° 0.1 mm 1 mps 751 mmHg 62%
11:00 +26°C° 0.1 mm 1 mps 751 mmHg 59%
12:00 +26°C° 0 mm 1 mps 750 mmHg 56%
13:00 +27°C° 0 mm 1 mps 750 mmHg 54%
14:00 +27°C° 0 mm 1 mps 749 mmHg 51%
15:00 +27°C° 0.1 mm 2 mps 749 mmHg 54%
16:00 +27°C° 0.1 mm 2 mps 749 mmHg 56%
17:00 +27°C° 0.1 mm 2 mps 749 mmHg 59%
18:00 +25°C° 0.1 mm 2 mps 749 mmHg 66%
19:00 +23°C° 0.1 mm 2 mps 749 mmHg 74%
20:00 +20°C° 0.1 mm 2 mps 749 mmHg 81%
21:00 +20°C° 0 mm 1 mps 749 mmHg 83%
22:00 +20°C° 0 mm 1 mps 749 mmHg 85%
23:00 +19°C° 0 mm 1 mps 749 mmHg 87%

10 August, Monday

Time Temperature Precipitation Wind Pressure Humidity
00:00 +19°C° 0 mm 1 mps 748 mmHg 89%
01:00 +19°C° 0 mm 1 mps 748 mmHg 90%
02:00 +18°C° 0 mm 1 mps 748 mmHg 92%
03:00 +18°C° 0 mm 1 mps 748 mmHg 93%
04:00 +18°C° 0 mm 1 mps 748 mmHg 93%
05:00 +18°C° 0 mm 1 mps 748 mmHg 94%
06:00 +19°C° 0 mm 1 mps 748 mmHg 89%
07:00 +21°C° 0 mm 1 mps 749 mmHg 83%
08:00 +22°C° 0 mm 1 mps 749 mmHg 78%
09:00 +24°C° 0 mm 2 mps 749 mmHg 72%
10:00 +25°C° 0 mm 2 mps 749 mmHg 65%
11:00 +26°C° 0 mm 2 mps 748 mmHg 59%
12:00 +27°C° 0 mm 2 mps 748 mmHg 56%
13:00 +27°C° 0 mm 2 mps 748 mmHg 54%
14:00 +28°C° 0 mm 1 mps 748 mmHg 51%
15:00 +27°C° 0.3 mm 2 mps 748 mmHg 56%
16:00 +26°C° 0.3 mm 2 mps 748 mmHg 62%
17:00 +25°C° 0.3 mm 3 mps 748 mmHg 68%
18:00 +24°C° 0.1 mm 3 mps 748 mmHg 74%
19:00 +21°C° 0.1 mm 2 mps 748 mmHg 80%
20:00 +20°C° 0.1 mm 2 mps 748 mmHg 86%
21:00 +19°C° 0 mm 2 mps 749 mmHg 88%
22:00 +18°C° 0 mm 2 mps 749 mmHg 90%
23:00 +18°C° 0 mm 2 mps 749 mmHg 92%
Show more